Weather History for CWBV - October, 2013

Change the Weather History Date:

Sunday, October 20, 2013

  Actual Average Record
Temperature  
Mean Temperature 56 °F -  
Max Temperature 59 °F - - ()
Min Temperature 53 °F - - ()
Degree Days  
Heating Degree Days 9    
Growing Degree Days 6 (Base 50)    
Moisture  
Dew Point 52 °F    
Average Humidity 86    
Maximum Humidity 100    
Minimum Humidity 66    
Precipitation  
Precipitation 0.00 in - - ()
Sea Level Pressure  
Sea Level Pressure 29.77 in    
Wind  
Wind Speed 8 mph ()    
Max Wind Speed 18 mph    
Max Gust Speed -    
T = Trace of Precipitation, MM = Missing Value Source: Averaged Metar Reports

Daily Weather History Graph

Daily Weather History Graph

Search for Another Location

Airport or City:

Trip Planner

Search our weather history database for the weather conditions in past years. The results will help you decide how hot, cold, wet, or windy it might be!

Date:

Astronomy

Oct. 20, 2013 Rise Set
Actual Time 7:31 AM ADT 6:15 PM ADT
Civil Twilight 7:01 AM ADT 6:45 PM ADT
Nautical Twilight 6:27 AM ADT 7:19 PM ADT
Astronomical Twilight 5:53 AM ADT 7:53 PM ADT
Moon 7:16 PM ADT (10/20) 9:09 AM ADT (10/20)
Length of Visible Light 11h 43m
Length of Day
10h 44m
Full, 97% of the Moon is Illuminated
Oct 20
Full
Oct 26
Last Quarter
Nov 3
New
Nov 10
First Quarter
Nov 17
Full

Hourly Weather History & Observations

Time (ADT) Temp. Dew Point Humidity Pressure Visibility Wind Dir Wind Speed Gust Speed Precip Events Conditions
12:00 AM 53 °F 45 °F 67% 29.88 in - WSW 4.6 mph - -  
12:00 AM 53.1 °F 45.1 °F 74% 29.88 in - WSW 4.6 mph - N/A   Unknown
1:00 AM 53.1 °F 45.7 °F 76% 29.89 in - West 3.5 mph - N/A   Unknown
2:00 AM 54.3 °F 47.3 °F 77% 29.89 in - SW 6.9 mph - N/A   Unknown
3:00 AM 55 °F 47 °F 66% 29.86 in - South 8.1 mph - -  
3:00 AM 55.0 °F 46.8 °F 74% 29.86 in - South 8.1 mph - N/A   Unknown
4:00 AM 54.3 °F 48.6 °F 81% 29.84 in - SSE 8.1 mph - N/A   Unknown
5:00 AM 54.7 °F 50.4 °F 85% 29.84 in - SSE 9.2 mph - N/A   Unknown
6:00 AM 55 °F 50 °F 76% 29.82 in - SE 10.4 mph - -  
6:00 AM 54.9 °F 49.6 °F 83% 29.82 in - SSE 10.4 mph - N/A   Unknown
7:00 AM 55.6 °F 48.4 °F 77% 29.80 in - SE 9.2 mph - N/A   Unknown
8:00 AM 55.6 °F 52.0 °F 88% 29.79 in - ESE 11.5 mph - N/A   Unknown
9:00 AM 56 °F 54 °F 91% 29.80 in - SE 9.2 mph - -  
9:00 AM 56.1 °F 54.1 °F 93% 29.80 in - SE 9.2 mph - N/A   Unknown
10:00 AM 57.9 °F 55.6 °F 92% 29.79 in - SSE 8.1 mph - N/A   Unknown
11:00 AM 59.5 °F 56.3 °F 89% 29.78 in - South 8.1 mph - N/A   Unknown
12:00 PM 59 °F 55 °F 82% 29.77 in - South 8.1 mph - -  
12:00 PM 59.0 °F 54.9 °F 86% 29.77 in - South 8.1 mph - N/A   Unknown
1:00 PM 57.9 °F 55.2 °F 91% 29.74 in - South 8.1 mph - N/A   Unknown
2:00 PM 57.6 °F 56.3 °F 96% 29.72 in - SSE 9.2 mph - N/A   Unknown
3:00 PM 56 °F 56 °F 100% 29.69 in - SSE 18.4 mph - -  
3:00 PM 56.5 °F 56.5 °F 100% 29.69 in - SSE 18.4 mph - N/A   Unknown
4:00 PM 56.3 °F - N/A% 29.69 in - SSE 16.1 mph - N/A   Unknown
5:00 PM 55.8 °F - N/A% 29.68 in - SSE 15.0 mph - N/A   Unknown
6:00 PM 56 °F - % 29.67 in - South 9.2 mph - -  
6:00 PM 56.3 °F - N/A% 29.67 in - South 9.2 mph - N/A   Unknown
7:00 PM 57.0 °F - N/A% 29.67 in - SW 17.3 mph - N/A   Unknown
8:00 PM 56.8 °F 56.8 °F 100% 29.68 in - WSW 16.1 mph - N/A   Unknown
10:00 PM 55.4 °F 55.4 °F 100% 29.71 in - West 15.0 mph - N/A   Unknown
11:00 PM 53.4 °F 52.5 °F 97% 29.73 in - WNW 17.3 mph - N/A   Unknown